This is the latest recevied weather packets stored in our database for station/object KI4NG. If no packets are shown the sender has not sent any weather packets the latest 1 day(s).
| Time | Temp. | Humidity | Pressure | Rain* | Wind** | Luminosity | Snow |
|---|---|---|---|---|---|---|---|
| 1836274803 | 20° C | 85% | 1020.3 hPa | 0 mm | 0 m/s | 0 W/m² | - |
| 1836274501 | 20° C | 86% | 1020.7 hPa | 0 mm | 0 m/s | 0 W/m² | - |
| 1836274354 | 20° C | 86% | 1020.4 hPa | 0 mm | 0 m/s | 0 W/m² | - |
| 1836274198 | 20° C | 87% | 1020.4 hPa | 0 mm | 0 m/s | 0 W/m² | - |
| 1836273892 | 20° C | 86% | 1020.3 hPa | 0 mm | 0 m/s | 0 W/m² | - |
| 1778049248 | 17.22° C | 81% | 1009 hPa | 0 mm | 2.24 m/s, 173° | 0 W/m² | - |
| 1778048946 | 17.22° C | 82% | 1009.4 hPa | 0 mm | 1.79 m/s, 181° | 0 W/m² | - |
| 1778048644 | 17.22° C | 81% | 1009.5 hPa | 0 mm | 3.13 m/s, 188° | 0 W/m² | - |
| 1778048340 | 17.22° C | 81% | 1009.5 hPa | 0 mm | 3.13 m/s, 187° | 0 W/m² | - |
| 1778048037 | 16.67° C | 82% | 1009.6 hPa | 0 mm | 4.47 m/s, 203° | 0 W/m² | - |
| 1778047735 | 16.67° C | 83% | 1009.7 hPa | 0 mm | 0.89 m/s, 167° | 0 W/m² | - |
| 1778047433 | 16.67° C | 85% | 1009.6 hPa | 0 mm | 0.89 m/s, 253° | 0 W/m² | - |
| 1778047129 | 16.11° C | 88% | 1009.7 hPa | 0 mm | 0.89 m/s, 154° | 0 W/m² | - |
| 1778046826 | 15.56° C | 87% | 1009.8 hPa | 0 mm | 2.68 m/s, 158° | 0 W/m² | - |
| 1778046523 | 16.11° C | 88% | 1009.9 hPa | 0 mm | 1.79 m/s, 163° | 0 W/m² | - |
| 1778046220 | 16.11° C | 86% | 1010.2 hPa | 0 mm | 2.68 m/s, 153° | 0 W/m² | - |
| 1778045916 | 16.11° C | 88% | 1010.2 hPa | 0 mm | 2.24 m/s, 193° | 0 W/m² | - |
| 1778045615 | 15.56° C | 90% | 1010.3 hPa | 0 mm | 2.24 m/s, 184° | 0 W/m² | - |
| 1778045313 | 15.56° C | 90% | 1010.1 hPa | 0 mm | 2.24 m/s, 180° | 0 W/m² | - |
| 1778045011 | 15° C | 92% | 1010.5 hPa | 0 mm | 1.34 m/s, 218° | 0 W/m² | - |
| 1778044709 | 15.56° C | 92% | 1010.4 hPa | 0 mm | 1.79 m/s, 179° | 0 W/m² | - |
| 1778044405 | 15° C | 92% | 1010.5 hPa | 0 mm | 1.34 m/s, 187° | 0 W/m² | - |
| 1778044102 | 15° C | 92% | 1010.6 hPa | 0 mm | 1.79 m/s, 187° | 0 W/m² | - |
| 1778043799 | 15° C | 93% | 1010.7 hPa | 0 mm | 0.89 m/s, 151° | 0 W/m² | - |
| 1778043496 | 15° C | 93% | 1010.6 hPa | 0 mm | 1.79 m/s, 182° | 0 W/m² | - |
* Rain latest hour (hover to see other rain measurements)
** Current wind speed in m/s (hover to see current wind gust speed)